Date String (YYYY-MM-DD hh:mm:ss) UTC,Instrument flags,absolute air pressure of the measurement (hPa),sample flow rate (lpm),inlet stack bypass flow (lpm),air temperature of the measurement (°C),ambient temperature measured by the external sensor (°C),aerosol sample conditioner tube jacket temperature (°C),OPC LED temperature (°C),internal box temperature (°C),relative humidity of the measurement (%),span deviation,mass concentration of particles derived from Lorenz-Mie calculation of OPC scattering (μg/m³),mass concentration of particles derived from Lorenz-Mie calculation of OPC scattering (μg/m³),mass concentration of particles derived from Lorenz-Mie calculation of OPC scattering (μg/m³)
DateTimeUTC,F1_M11,P_M11,Q1_M11,Q2_M11,T1_M11,T2_M11,T3_M11,T4_M11,T5_M11,U1_M11,ZSPAN_M11,X2_M11,X0_M11,X1_M11
2024-06-09 13:00:00,SystemResetWarning,0832.6,5.00,000.00,030.6,029.9,000.0,039.0,032.3,031.4,0000.0,0008.23,0014.66,0007.35
2024-06-09 13:01:00,SystemResetWarning,0832.7,5.01,000.00,030.6,029.9,000.0,039.0,032.3,031.5,0000.0,0008.23,0014.55,0007.38
2024-06-09 13:02:00,SystemResetWarning,0832.6,4.99,000.00,030.6,029.9,000.0,039.0,032.3,031.3,0000.0,0008.27,0014.56,0007.42
2024-06-09 13:03:00,SystemResetWarning,0832.6,5.00,000.00,030.6,029.9,000.0,039.0,032.3,031.1,0000.1,0008.36,0014.82,0007.49
2024-06-09 13:04:00,SystemResetWarning,0832.7,5.00,000.00,030.6,029.9,000.0,039.0,032.4,031.2,0000.4,0008.52,0015.07,0007.58
2024-06-09 13:05:00,SystemResetWarning,0832.6,4.99,000.00,030.6,029.9,000.0,039.1,032.3,031.4,0000.8,0008.60,0014.75,0007.64
2024-06-09 13:06:00,SystemResetWarning,0832.7,5.00,000.00,030.7,029.9,000.0,039.1,032.3,031.4,0001.3,0008.69,0014.95,0007.73
2024-06-09 13:07:00,SystemResetWarning,0832.7,5.00,000.00,030.7,029.9,000.0,039.1,032.4,031.4,0001.7,0008.80,0014.51,0007.81
2024-06-09 13:08:00,SystemResetWarning,0832.6,5.00,000.00,030.7,030.0,000.0,039.1,032.4,031.4,0001.7,0008.97,0015.00,0007.92
2024-06-09 13:09:00,SystemResetWarning,0832.7,5.01,000.00,030.7,030.0,000.0,039.1,032.4,031.4,0002.1,0009.14,0015.15,0008.06
2024-06-09 13:10:00,SystemResetWarning,0832.7,5.00,000.00,030.7,030.0,000.0,039.1,032.4,031.5,0002.1,0009.25,0014.99,0008.19
2024-06-09 13:11:00,SystemResetWarning,0832.7,5.00,000.00,030.7,030.0,000.0,039.1,032.4,031.5,0002.5,0009.36,0015.29,0008.32
2024-06-09 13:12:00,SystemResetWarning,0832.7,4.98,000.00,030.7,030.0,000.0,039.1,032.5,031.5,0002.8,0009.49,0016.17,0008.45
2024-06-09 13:13:00,SystemResetWarning,0832.7,5.00,000.00,030.7,030.0,000.0,039.1,032.5,031.4,0002.6,0009.66,0017.01,0008.58
2024-06-09 13:14:00,SystemResetWarning,0832.7,5.00,000.00,030.7,030.0,000.0,039.1,032.4,031.1,0002.7,0009.80,0017.50,0008.69
2024-06-09 13:15:00,SystemResetWarning,0832.7,5.00,000.00,030.7,030.0,000.0,039.1,032.4,031.2,0002.7,0009.88,0017.50,0008.81
2024-06-09 13:16:00,SystemResetWarning,0832.8,5.00,000.00,030.7,030.0,000.0,039.1,032.4,031.2,0002.6,0009.97,0017.55,0008.92
2024-06-09 13:17:00,SystemResetWarning,0832.8,5.01,000.00,030.8,030.0,000.0,039.2,032.4,031.2,0003.1,0010.08,0016.95,0009.04
2024-06-09 13:18:00,SystemResetWarning,0832.8,5.00,000.00,030.8,030.0,000.0,039.2,032.5,031.2,0003.1,0010.16,0017.16,0009.15
2024-06-09 13:19:00,SystemResetWarning,0832.8,5.00,000.00,030.8,030.0,000.0,039.2,032.5,031.3,0002.6,0010.27,0017.24,0009.33
2024-06-09 13:20:00,SystemResetWarning,0832.7,5.00,000.00,030.8,030.0,000.0,039.2,032.5,031.6,0002.0,0010.50,0017.42,0009.55
2024-06-09 13:21:00,SystemResetWarning,0832.8,5.00,000.00,030.8,030.0,000.0,039.2,032.5,031.8,0001.9,0010.84,0017.87,0009.89
2024-06-09 13:22:00,SystemResetWarning,0832.7,4.99,000.00,030.8,030.0,000.0,039.2,032.5,031.7,0001.6,0011.24,0018.52,0010.26
2024-06-09 13:23:00,SystemResetWarning,0832.8,5.00,000.00,030.8,030.1,000.0,039.2,032.5,031.5,0001.3,0011.65,0019.20,0010.62
2024-06-09 13:24:00,SystemResetWarning,0832.7,5.01,000.00,030.8,030.1,000.0,039.2,032.5,031.5,0001.3,0012.09,0019.51,0011.02
2024-06-09 13:25:00,SystemResetWarning,0832.7,5.01,000.00,030.8,030.1,000.0,039.2,032.5,031.5,0001.1,0012.44,0019.61,0011.39
2024-06-09 13:26:00,SystemResetWarning,0832.7,4.99,000.00,030.8,030.1,000.0,039.2,032.5,031.6,0001.3,0012.86,0020.37,0011.76
2024-06-09 13:27:00,SystemResetWarning,0832.8,4.99,000.00,030.8,030.1,000.0,039.2,032.5,031.7,0001.0,0013.28,0020.92,0012.13
2024-06-09 13:28:00,SystemResetWarning,0832.7,5.01,000.00,030.8,030.1,000.0,039.2,032.5,031.8,0000.6,0013.68,0021.24,0012.50
2024-06-09 13:29:00,SystemResetWarning,0832.8,5.01,000.00,030.8,030.1,000.0,039.2,032.5,031.8,0000.4,0014.09,0021.45,0012.85
2024-06-09 13:30:00,SystemResetWarning,0832.7,5.00,000.00,030.8,030.1,000.0,039.2,032.5,031.8,0000.5,0014.40,0021.38,0013.14
2024-06-09 13:31:00,SystemResetWarning,0832.7,5.00,000.00,030.8,030.1,000.0,039.3,032.5,031.9,0000.1,0014.58,0021.56,0013.31
2024-06-09 13:32:00,SystemResetWarning,0832.7,5.00,000.00,030.8,030.1,000.0,039.3,032.5,031.8,-000.2,0014.69,0021.75,0013.39
2024-06-09 13:33:00,SystemResetWarning,0832.7,5.00,000.00,030.8,030.1,000.0,039.3,032.5,031.6,-000.5,0014.82,0022.11,0013.47
2024-06-09 13:34:00,SystemResetWarning,0832.7,5.00,000.00,030.9,030.1,000.0,039.3,032.5,031.5,-000.1,0014.89,0021.78,0013.56
2024-06-09 13:35:00,SystemResetWarning,0832.7,5.00,000.00,030.9,030.1,000.0,039.3,032.5,031.6,-000.0,0014.97,0021.67,0013.64
2024-06-09 13:36:00,SystemResetWarning,0832.7,4.99,000.00,030.9,030.1,000.0,039.3,032.6,031.7,-000.2,0015.04,0021.55,0013.69
2024-06-09 13:37:00,SystemResetWarning,0832.7,5.00,000.00,030.9,030.1,000.0,039.3,032.6,031.6,-000.4,0015.13,0021.69,0013.74
2024-06-09 13:38:00,SystemResetWarning,0832.7,5.00,000.00,030.9,030.1,000.0,039.3,032.6,031.7,-000.6,0015.20,0022.50,0013.83
2024-06-09 13:39:00,SystemResetWarning,0832.7,5.00,000.00,030.9,030.1,000.0,039.3,032.6,031.9,-000.7,0015.24,0022.52,0013.88
2024-06-09 13:40:00,SystemResetWarning,0832.8,5.00,000.00,030.9,030.1,000.0,039.3,032.6,031.9,-000.6,0015.31,0023.16,0013.95
2024-06-09 13:41:00,SystemResetWarning,0832.9,5.00,000.00,030.9,030.1,000.0,039.3,032.6,031.8,-000.6,0015.38,0024.19,0013.98
2024-06-09 13:42:00,SystemResetWarning,0832.8,5.00,000.00,030.9,030.1,000.0,039.3,032.6,031.7,-000.5,0015.42,0024.33,0014.03
2024-06-09 13:43:00,SystemResetWarning,0832.8,5.01,000.00,030.9,030.2,000.0,039.3,032.6,031.6,-000.6,0015.47,0024.57,0014.10
2024-06-09 13:44:00,SystemResetWarning,0832.8,5.00,000.00,030.9,030.2,000.0,039.3,032.6,031.6,-000.4,0015.49,0024.75,0014.14
2024-06-09 13:45:00,SystemResetWarning,0832.8,5.00,000.00,030.9,030.2,000.0,039.3,032.6,031.8,-000.5,0015.49,0024.38,0014.16
2024-06-09 13:46:00,SystemResetWarning,0832.8,4.99,000.00,030.9,030.2,000.0,039.3,032.6,031.8,-000.7,0015.45,0023.81,0014.15
2024-06-09 13:47:00,SystemResetWarning,0832.7,4.99,000.00,030.9,030.2,000.0,039.4,032.6,031.8,-000.6,0015.47,0023.87,0014.16
2024-06-09 13:48:00,SystemResetWarning,0832.8,5.00,000.00,030.9,030.2,000.0,039.3,032.6,031.8,-000.7,0015.49,0023.73,0014.19
2024-06-09 13:49:00,SystemResetWarning,0832.9,5.00,000.00,030.9,030.2,000.0,039.4,032.6,031.9,-000.5,0015.48,0022.74,0014.17
2024-06-09 13:50:00,SystemResetWarning,0833.1,4.99,000.00,030.9,030.2,000.0,039.4,032.6,032.1,-000.6,0015.54,0022.81,0014.17
2024-06-09 13:51:00,SystemResetWarning,0833.3,5.01,000.00,030.9,030.2,000.0,039.4,032.6,032.1,-000.6,0015.56,0022.32,0014.18
2024-06-09 13:52:00,SystemResetWarning,0832.9,5.01,000.00,031.0,030.2,000.0,039.4,032.6,032.0,-000.8,0015.62,0021.79,0014.19
2024-06-09 13:53:00,SystemResetWarning,0832.9,5.00,000.00,031.0,030.2,000.0,039.4,032.6,032.0,-000.8,0015.62,0021.51,0014.19
2024-06-09 13:54:00,SystemResetWarning,0832.9,5.00,000.00,031.0,030.2,000.0,039.4,032.7,031.9,-000.5,0015.65,0021.17,0014.18
2024-06-09 13:55:00,SystemResetWarning,0832.9,5.00,000.00,031.0,030.2,000.0,039.4,032.7,031.8,-000.4,0015.67,0020.57,0014.18
2024-06-09 13:56:00,SystemResetWarning,0832.9,5.00,000.00,031.0,030.2,000.0,039.4,032.6,031.7,-000.3,0015.74,0021.06,0014.22
2024-06-09 13:57:00,SystemResetWarning,0832.9,4.99,000.00,031.0,030.2,000.0,039.4,032.6,031.7,0000.0,0015.82,0021.28,0014.25
2024-06-09 13:58:00,SystemResetWarning,0832.9,4.99,000.00,031.0,030.2,000.0,039.4,032.6,031.8,0000.3,0015.84,0021.37,0014.28
2024-06-09 13:59:00,SystemResetWarning,0832.9,5.00,000.00,031.0,030.2,000.0,039.4,032.7,031.9,0000.5,0015.88,0022.39,0014.29
